Tianlu-1

operational
NORAD ID: 62726 Int'l Des: NNA 2025-012 Owner: JHQJ/YINHE Country: CN
LEOCIRCULARRETROGRADESSO

Tianlu-1について

説明を読み込み中...

リアルタイム位置

3D地球を読み込み中...

次回通過

高度履歴

Altitude vs Time

uPlot chart will show altitude changes over time

軌道要素

1 62726U 25012B 25340.92883267 .00008883 00000-0 42795-3 0 9999
2 62726 97.4466 51.7853 0008380 221.1477 138.9126 15.18939011 49048
Epoch: Dec 6, 2025 • Age: 20 hours

現在のステータス

高度 533.3 km
速度 7.60 km/s
衛星直下点 -81.00°S, 175.7°W
打ち上げ日 Jan 17, 2025
運用期間 0.8 years
タイプ other

技術仕様

分類 Payload
質量 100.00 kg
乾燥質量 100.00 kg
総質量 100.00 kg
長さ 0.70 m
直径 1.00 m
スパン 2.00 m
形状 Box + 2 Pan
製造者 YINHE
バスタイプ Tianlu
フェーズステータス In Orbit
所有者/国 JHQJ/YINHE/CN

大規模コンステレーション

Loading constellations...